Voltar ao catálogo

CZ-6A DEB

AtivoSSO
NORAD 55547·DEBRIS·🇨🇳 China

Lançado Nov 11, 2022 de Taiyuan Satellite Launch Center

Loading…

Próximas Passagens (próximas 24 horas)

TLE

AtualizadoSource: Space-Track

Época: Sep 12, 2026, 21:50 UTC

1 55547U 22151YV  26255.91036685  .00002619  00000-0  13848-2 0  9999
2 55547  98.9129 250.0469 0090995 137.3966 223.4311 14.12524568191149

Acompanhe CZ-6A DEB em tempo real com AllMySat

Download on the App Store